KAL107 RKSI-ZSHC

Flight info

Callsign KAL107
Flight time N/A
Altitude 34000
Route BOPTA3H BOPTA Z51 BEDES Y711 PONIK A593 LAMEN/K0872F340 A593 AKARA/K0872S1040 A593 DUMET W114 LASAN G327 NINAS B221 SUPAR W505 DSH
Aircraft B77W/H-SDE1E2E3FGHIJ2J3J4J5M1RWXY/LB1D1

Departure

Time N/A
Airport Incheon International Airport (RKSI)

Arrival

Time 2026-05-06 03:14
Airport Hangzhou Xiaoshan International Airport (ZSHC)
Time Latitude Longitude Altitude Speed Heading
2026-05-06 02:38 31.44902 123.23317 23657 ft 408 kts 261°
2026-05-06 02:38 31.44290 123.20113 23657 ft 407 kts 262°
2026-05-06 02:39 31.43672 123.16876 23657 ft 406 kts 262°
2026-05-06 02:39 31.43049 123.13618 23657 ft 406 kts 261°
2026-05-06 02:39 31.42430 123.10384 23658 ft 405 kts 262°
2026-05-06 02:39 31.41817 123.07192 23657 ft 405 kts 262°
2026-05-06 02:40 31.41195 123.03951 23655 ft 405 kts 262°
2026-05-06 02:40 31.40581 123.00761 23656 ft 404 kts 261°
2026-05-06 02:40 31.39960 122.97536 23656 ft 404 kts 262°
2026-05-06 02:40 31.39339 122.94315 23650 ft 405 kts 262°
2026-05-06 02:41 31.38725 122.91135 23652 ft 404 kts 262°
2026-05-06 02:41 31.38103 122.87917 23653 ft 405 kts 261°
2026-05-06 02:41 31.37476 122.84679 23653 ft 406 kts 262°
2026-05-06 02:41 31.36725 122.81512 23647 ft 408 kts 254°
2026-05-06 02:42 31.35488 122.78440 23647 ft 415 kts 244°
2026-05-06 02:42 31.33820 122.75699 23646 ft 422 kts 233°
2026-05-06 02:42 31.31692 122.73248 23644 ft 425 kts 225°
2026-05-06 02:42 31.29430 122.71014 23649 ft 427 kts 224°
2026-05-06 02:43 31.27132 122.68772 23649 ft 427 kts 224°
2026-05-06 02:43 31.24871 122.66570 23645 ft 427 kts 224°
2026-05-06 02:43 31.22551 122.64313 23641 ft 426 kts 224°
2026-05-06 02:43 31.20265 122.62090 23648 ft 428 kts 224°
2026-05-06 02:44 31.17981 122.59870 23648 ft 427 kts 224°
2026-05-06 02:44 31.15684 122.57639 23641 ft 427 kts 224°
2026-05-06 02:44 31.13400 122.55423 23644 ft 426 kts 224°
2026-05-06 02:44 31.11126 122.53217 23640 ft 427 kts 224°
2026-05-06 02:45 31.08814 122.50975 23644 ft 430 kts 224°
2026-05-06 02:45 31.06521 122.48753 23643 ft 429 kts 224°
2026-05-06 02:45 31.04244 122.46551 23646 ft 428 kts 224°
2026-05-06 02:45 31.01920 122.44302 23642 ft 429 kts 224°
2026-05-06 02:46 30.99683 122.42042 23640 ft 428 kts 229°
2026-05-06 02:46 30.97588 122.39556 23646 ft 426 kts 231°
2026-05-06 02:46 30.95546 122.37084 23643 ft 425 kts 231°
2026-05-06 02:46 30.93481 122.34584 23644 ft 428 kts 230°
2026-05-06 02:47 30.91408 122.32080 23647 ft 427 kts 230°
2026-05-06 02:47 30.89347 122.29592 23640 ft 427 kts 230°
2026-05-06 02:47 30.87286 122.27106 23636 ft 426 kts 230°
2026-05-06 02:47 30.85255 122.24660 23639 ft 426 kts 230°
2026-05-06 02:48 30.83193 122.22176 23636 ft 425 kts 230°
2026-05-06 02:48 30.81123 122.19684 23634 ft 425 kts 231°
2026-05-06 02:48 30.79267 122.17003 23630 ft 421 kts 240°
2026-05-06 02:48 30.77650 122.14159 23636 ft 423 kts 242°
2026-05-06 02:49 30.76036 122.11271 23635 ft 421 kts 242°
2026-05-06 02:49 30.74430 122.08400 23631 ft 421 kts 242°
2026-05-06 02:49 30.72827 122.05537 23630 ft 422 kts 242°
2026-05-06 02:49 30.71217 122.02666 23628 ft 422 kts 241°
2026-05-06 02:50 30.69619 121.99820 23625 ft 420 kts 242°
2026-05-06 02:50 30.68025 121.96980 23635 ft 422 kts 242°
2026-05-06 02:50 30.66408 121.94105 23627 ft 422 kts 242°
2026-05-06 02:50 30.64799 121.91246 23624 ft 420 kts 242°
2026-05-06 02:51 30.63206 121.88418 23513 ft 417 kts 242°
2026-05-06 02:51 30.61623 121.85609 23273 ft 418 kts 242°
2026-05-06 02:51 30.60015 121.82758 23087 ft 417 kts 242°
2026-05-06 02:51 30.58441 121.79971 22959 ft 414 kts 242°
2026-05-06 02:52 30.56865 121.77180 22797 ft 413 kts 242°
2026-05-06 02:52 30.55283 121.74380 22635 ft 411 kts 241°
2026-05-06 02:52 30.53693 121.71569 22461 ft 411 kts 241°
2026-05-06 02:52 30.52134 121.68816 22162 ft 403 kts 241°
2026-05-06 02:53 30.50600 121.66109 21713 ft 399 kts 241°
2026-05-06 02:53 30.49077 121.63422 21204 ft 397 kts 241°
2026-05-06 02:53 30.47563 121.60751 20706 ft 395 kts 241°
2026-05-06 02:53 30.46058 121.58099 20170 ft 393 kts 240°
2026-05-06 02:54 30.44569 121.55476 19675 ft 391 kts 240°
2026-05-06 02:54 30.43064 121.52827 19157 ft 389 kts 240°
2026-05-06 02:54 30.41582 121.50221 18615 ft 386 kts 240°
2026-05-06 02:54 30.40107 121.47629 18122 ft 384 kts 240°
2026-05-06 02:55 30.38633 121.45040 17618 ft 382 kts 240°
2026-05-06 02:55 30.37170 121.42473 17102 ft 380 kts 239°
2026-05-06 02:55 30.35726 121.39939 16613 ft 378 kts 239°
2026-05-06 02:55 30.34287 121.37406 16100 ft 376 kts 239°
2026-05-06 02:56 30.32848 121.34856 15558 ft 374 kts 239°
2026-05-06 02:56 30.31434 121.32355 15010 ft 372 kts 239°
2026-05-06 02:56 30.30008 121.29833 14496 ft 370 kts 239°
2026-05-06 02:56 30.28595 121.27337 13986 ft 367 kts 239°
2026-05-06 02:57 30.27199 121.24873 13510 ft 365 kts 238°
2026-05-06 02:57 30.25804 121.22411 12973 ft 364 kts 238°
2026-05-06 02:57 30.24371 121.20027 12448 ft 362 kts 234°
2026-05-06 02:57 30.22853 121.17698 11936 ft 359 kts 234°
2026-05-06 02:58 30.21338 121.15372 11444 ft 357 kts 234°
2026-05-06 02:58 30.19854 121.13081 10943 ft 355 kts 234°
2026-05-06 02:58 30.18372 121.10788 10528 ft 349 kts 235°
2026-05-06 02:58 30.16944 121.08574 10415 ft 334 kts 234°
2026-05-06 02:59 30.15584 121.06464 10307 ft 320 kts 234°
2026-05-06 02:59 30.14279 121.04438 10186 ft 308 kts 235°
2026-05-06 02:59 30.13024 121.02490 10049 ft 297 kts 235°
2026-05-06 02:59 30.11787 121.00568 9696 ft 295 kts 234°
2026-05-06 03:00 30.10568 120.98676 9481 ft 287 kts 234°
2026-05-06 03:00 30.09358 120.96800 9045 ft 290 kts 234°
2026-05-06 03:00 30.08153 120.94928 8610 ft 291 kts 235°
2026-05-06 03:00 30.06947 120.93044 8378 ft 285 kts 235°
2026-05-06 03:01 30.05749 120.91173 7897 ft 289 kts 234°
2026-05-06 03:01 30.04557 120.89314 7703 ft 281 kts 234°
2026-05-06 03:01 30.03449 120.87463 7246 ft 284 kts 244°
2026-05-06 03:01 30.03002 120.85244 6826 ft 282 kts 273°
2026-05-06 03:02 30.03382 120.83046 6690 ft 274 kts 287°
2026-05-06 03:02 30.04029 120.80987 6614 ft 269 kts 291°
2026-05-06 03:02 30.04721 120.78996 6511 ft 267 kts 291°
2026-05-06 03:02 30.05428 120.77000 6418 ft 266 kts 291°
2026-05-06 03:03 30.06138 120.74996 6323 ft 266 kts 291°
2026-05-06 03:03 30.06840 120.73013 6235 ft 266 kts 291°
2026-05-06 03:03 30.07543 120.71023 6123 ft 265 kts 291°
2026-05-06 03:03 30.08245 120.69038 6024 ft 265 kts 291°
2026-05-06 03:04 30.08946 120.67055 5925 ft 265 kts 291°
2026-05-06 03:04 30.09643 120.65080 5835 ft 264 kts 291°
2026-05-06 03:04 30.10342 120.63100 5734 ft 264 kts 291°
2026-05-06 03:04 30.11036 120.61133 5632 ft 264 kts 291°
2026-05-06 03:05 30.11724 120.59179 5540 ft 263 kts 291°
2026-05-06 03:05 30.12426 120.57186 5435 ft 263 kts 291°
2026-05-06 03:05 30.13115 120.55231 5336 ft 263 kts 291°
2026-05-06 03:05 30.13803 120.53274 5242 ft 262 kts 291°
2026-05-06 03:06 30.14492 120.51317 5149 ft 263 kts 291°
2026-05-06 03:06 30.15189 120.49334 5049 ft 263 kts 291°
2026-05-06 03:06 30.15733 120.47418 4937 ft 260 kts 276°
2026-05-06 03:06 30.15525 120.45336 4825 ft 254 kts 251°
2026-05-06 03:07 30.14836 120.43453 4656 ft 252 kts 244°
2026-05-06 03:07 30.14054 120.41645 4420 ft 250 kts 243°
2026-05-06 03:07 30.13255 120.39851 4199 ft 246 kts 242°
2026-05-06 03:07 30.12514 120.38187 4003 ft 225 kts 242°
2026-05-06 03:08 30.11818 120.36620 3816 ft 211 kts 242°
2026-05-06 03:08 30.11163 120.35152 3629 ft 193 kts 242°
2026-05-06 03:08 30.10572 120.33822 3446 ft 185 kts 242°
2026-05-06 03:08 30.09986 120.32507 3253 ft 181 kts 242°
2026-05-06 03:09 30.09539 120.31270 3062 ft 180 kts 261°
2026-05-06 03:09 30.09727 120.29919 2956 ft 180 kts 298°
2026-05-06 03:09 30.10639 120.28921 2949 ft 182 kts 332°
2026-05-06 03:09 30.11784 120.28269 2956 ft 182 kts 334°
2026-05-06 03:10 30.12924 120.27636 2959 ft 182 kts 334°
2026-05-06 03:10 30.14089 120.27065 2951 ft 181 kts 351°
2026-05-06 03:10 30.15322 120.27249 2792 ft 184 kts 30°
2026-05-06 03:10 30.16185 120.28265 2556 ft 179 kts 59°
2026-05-06 03:11 30.16777 120.29524 2326 ft 178 kts 64°
2026-05-06 03:11 30.17328 120.30775 2097 ft 169 kts 64°
2026-05-06 03:11 30.17836 120.31923 1884 ft 156 kts 64°
2026-05-06 03:11 30.18324 120.33020 1687 ft 152 kts 64°
2026-05-06 03:12 30.18809 120.34113 1487 ft 151 kts 64°
2026-05-06 03:12 30.19291 120.35199 1288 ft 152 kts 64°
2026-05-06 03:12 30.19774 120.36283 1085 ft 152 kts 63°
2026-05-06 03:12 30.20258 120.37376 884 ft 152 kts 63°
2026-05-06 03:13 30.20734 120.38455 696 ft 153 kts 63°
2026-05-06 03:13 30.21230 120.39552 477 ft 152 kts 62°
2026-05-06 03:13 30.21708 120.40628 279 ft 152 kts 63°
2026-05-06 03:13 30.22196 120.41740 72 ft 153 kts 62°
2026-05-06 03:14 30.22641 120.42745 35 ft 121 kts 63°
2026-05-06 03:14 30.22943 120.43424 35 ft 68 kts 63°
2026-05-06 03:14 30.23090 120.43754 35 ft 29 kts 63°
2026-05-06 03:14 30.23164 120.43913 35 ft 17 kts 58°
2026-05-06 03:15 30.23220 120.43998 35 ft 9 kts 45°
2026-05-06 03:15 30.23267 120.44048 35 ft 9 kts 36°
2026-05-06 03:15 30.23319 120.44091 35 ft 9 kts 34°
2026-05-06 03:15 30.23372 120.44128 35 ft 8 kts 10°
2026-05-06 03:16 30.23429 120.44106 35 ft 9 kts 328°
2026-05-06 03:16 30.23497 120.44061 35 ft 13 kts 332°
2026-05-06 03:16 30.23584 120.44009 35 ft 14 kts 333°
2026-05-06 03:16 30.23674 120.43956 35 ft 13 kts 333°
2026-05-06 03:17 30.23756 120.43907 35 ft 13 kts 332°
2026-05-06 03:17 30.23835 120.43861 35 ft 12 kts 333°
2026-05-06 03:17 30.23912 120.43816 35 ft 12 kts 332°
2026-05-06 03:17 30.23988 120.43771 35 ft 12 kts 333°
2026-05-06 03:18 30.24072 120.43721 35 ft 14 kts 333°
2026-05-06 03:18 30.24172 120.43662 35 ft 16 kts 333°
2026-05-06 03:18 30.24283 120.43597 35 ft 18 kts 333°
2026-05-06 03:18 30.24405 120.43526 35 ft 20 kts 333°
2026-05-06 03:19 30.24534 120.43449 35 ft 21 kts 333°
2026-05-06 03:19 30.24614 120.43403 35 ft 9 kts 332°
2026-05-06 03:19 30.24637 120.43345 35 ft 9 kts 268°
2026-05-06 03:19 30.24605 120.43262 35 ft 13 kts 242°
2026-05-06 03:20 30.24499 120.43021 35 ft 19 kts 243°
2026-05-06 03:20 30.24440 120.42889 35 ft 17 kts 243°
2026-05-06 03:20 30.24385 120.42765 35 ft 16 kts 243°
2026-05-06 03:21 30.24334 120.42650 35 ft 15 kts 243°
2026-05-06 03:21 30.24285 120.42539 35 ft 15 kts 243°
2026-05-06 03:21 30.24234 120.42425 35 ft 16 kts 243°
2026-05-06 03:21 30.24181 120.42303 35 ft 17 kts 243°
2026-05-06 03:22 30.24124 120.42175 35 ft 18 kts 243°
2026-05-06 03:22 30.24065 120.42041 35 ft 18 kts 243°
2026-05-06 03:22 30.24007 120.41911 35 ft 17 kts 243°
2026-05-06 03:22 30.23960 120.41805 35 ft 9 kts 243°
2026-05-06 03:23 30.23924 120.41751 35 ft 7 kts 203°
2026-05-06 03:23 30.23877 120.41772 35 ft 7 kts 128°
2026-05-06 03:23 30.23842 120.41822 35 ft 8 kts 133°
2026-05-06 03:23 30.23803 120.41869 35 ft 7 kts 134°
2026-05-06 03:24 30.23788 120.41885 35 ft 0 kts 134°
2026-05-06 03:24 30.23786 120.41888 35 ft 0 kts 134°